Location: San Martino di Castrozza
(46.2667°N, 11.8000°E)
Time: 16:03:35
(UTC+00:00)

Cosmos 2278 Rocket - Pass Details

Date: 23 April 2021
Orbit: 843 x 844 km, 71.0° (Epoch: 13 May)

Event Time Altitude Azimuth Distance (km) Brightness Sun altitude
Exits shadow 02:43:14 - 283° (WNW) 2,688 4.4 -14.4°
Reaches altitude 10° 02:44:19 10° 291° (WNW) 2,468 4.3 -14.2°
Maximum altitude 02:47:12 14° 323° (NW) 2,193 4.3 -13.8°
Drops below altitude 10° 02:50:07 10° 354° (N) 2,473 5.0 -13.4°
Sets 02:53:55 0° 19° (NNE) 3,411 6.3 -12.9°
